[TLELIST] Archives

 

[TLELIST] Current TLEs

October 23rd 2025 PDT

0 HST 1 20580U 90037B 25296.15950932 .00010004 00000-0 35753-3 0 9993 2 20580 28.4687 256.5162 0002150 36.1884 323.8856 15.27089889752250 0 ISS (ZARYA) 1 25544U 98067A 25295.78201116 .00014649 00000-0 27011-3 0 9997 2 25544 51.6347 34.7593 0004450 325.2388 34.8309 15.49358610534958 0 CXO 1 25867U 99040B 25296.37207216 .00000767 00000-0 00000-0 0 9992 2 25867 52.0490 124.4132 8221787 310.6302 0.1667 0.37807083 16426 ...Continue Reading

[TLELIST] Current TLEs

October 22nd 2025 PDT

0 HST 1 20580U 90037B 25294.26426360 .00010878 00000-0 38989-3 0 9999 2 20580 28.4689 269.3969 0002100 16.8790 343.1874 15.27051558751969 0 ISS (ZARYA) 1 25544U 98067A 25295.00800236 .00014857 00000-0 27406-3 0 9999 2 25544 51.6346 38.5904 0004414 322.0877 37.9800 15.49333878534839 0 CXO 1 25867U 99040B 25296.37207216 .00000767 00000-0 00000-0 0 9992 2 25867 52.0490 124.4132 8221787 310.6302 0.1667 0.37807083 16426 ...Continue Reading

[TLELIST] Current TLEs

October 21st 2025 PDT

0 HST 1 20580U 90037B 25293.28394481 .00012652 00000-0 45494-3 0 9999 2 20580 28.4689 276.0595 0002050 6.7972 353.2650 15.27030500751815 0 ISS (ZARYA) 1 25544U 98067A 25293.78246337 .00016075 00000-0 29626-3 0 9998 2 25544 51.6343 44.6559 0004365 316.7773 43.2873 15.49292312534646 0 CXO 1 25867U 99040B 25296.37207216 .00000767 00000-0 00000-0 0 9992 2 25867 52.0490 124.4132 8221787 310.6302 0.1667 0.37807083 16426 ...Continue Reading

[TLELIST] Current TLEs

October 20th 2025 PDT

0 HST 1 20580U 90037B 25293.02252426 .00012443 00000-0 44739-3 0 9992 2 20580 28.4688 277.8363 0002038 4.0227 356.0384 15.27023751751776 0 ISS (ZARYA) 1 25544U 98067A 25292.81490840 .00017254 00000-0 31772-3 0 9996 2 25544 51.6337 49.4445 0004294 312.8540 47.2087 15.49258736534492 0 CXO 1 25867U 99040B 25293.72802329 .00000720 00000-0 00000+0 0 9992 2 25867 52.0284 124.4771 8226367 310.6443 0.1841 0.37811257 16412 ...Continue Reading

[TLELIST] Current TLEs

October 19th 2025 PDT

0 HST 1 20580U 90037B 25292.30361102 .00014189 00000-0 51141-3 0 9998 2 20580 28.4688 282.7221 0001978 356.3744 3.6837 15.27008075751661 0 ISS (ZARYA) 1 25544U 98067A 25292.16985965 .00018430 00000-0 33901-3 0 9994 2 25544 51.6340 52.6382 0004293 309.5467 50.5142 15.49237190534391 0 CXO 1 25867U 99040B 25293.72802329 .00000720 00000-0 00000+0 0 9992 2 25867 52.0284 124.4771 8226367 310.6443 0.1841 0.37811257 16412 ...Continue Reading

[TLELIST] Current TLEs

October 18th 2025 PDT

0 HST 1 20580U 90037B 25291.32326111 .00010985 00000-0 39466-3 0 9996 2 20580 28.4688 289.3843 0001918 345.3636 14.6903 15.26980955751511 0 ISS (ZARYA) 1 25544U 98067A 25291.07325464 .00013628 00000-0 25328-3 0 9993 2 25544 51.6337 58.0643 0004254 304.7888 55.2700 15.49199814534222 0 CXO 1 25867U 99040B 25293.72802329 .00000720 00000-0 00000+0 0 9992 2 25867 52.0284 124.4771 8226367 310.6443 0.1841 0.37811257 16412 ...Continue Reading

[TLELIST] Current TLEs

October 17th 2025 PDT

0 HST 1 20580U 90037B 25289.10108369 .00009399 00000-0 33704-3 0 9998 2 20580 28.4692 304.4849 0001822 318.0685 41.9770 15.26938637751173 0 ISS (ZARYA) 1 25544U 98067A 25290.17015183 .00013085 00000-0 24376-3 0 9996 2 25544 51.6334 62.5333 0004260 300.9101 59.1468 15.49173581534089 0 CXO 1 25867U 99040B 25291.08347916 .00000750 00000-0 00000-0 0 9999 2 25867 51.9999 124.5500 8232718 310.6504 0.1694 0.37810018 16408 ...Continue Reading

[TLELIST] Current TLEs

October 16th 2025 PDT

0 HST 1 20580U 90037B 25289.10108375 .00009869 00000-0 35424-3 0 9998 2 20580 28.4692 304.4849 0001823 318.0665 41.9790 15.26939273751171 0 ISS (ZARYA) 1 25544U 98067A 25289.20252440 .00012084 00000-0 22595-3 0 9996 2 25544 51.6331 67.3223 0004212 296.3293 63.7263 15.49149277533936 0 CXO 1 25867U 99040B 25291.08347916 .00000750 00000-0 00000-0 0 9999 2 25867 51.9999 124.5500 8232718 310.6504 0.1694 0.37810018 16408 ...Continue Reading

[TLELIST] Current TLEs

October 15th 2025 PDT

0 HST 1 20580U 90037B 25287.46709332 .00008777 00000-0 31451-3 0 9998 2 20580 28.4696 315.5873 0001769 297.5164 62.5251 15.26910297750927 0 ISS (ZARYA) 1 25544U 98067A 25288.29939280 .00010825 00000-0 20343-3 0 9998 2 25544 51.6325 71.7910 0004132 294.0373 66.0183 15.49128438533793 0 CXO 1 25867U 99040B 25288.43817974 .00000826 00000-0 00000-0 0 9994 2 25867 51.9505 124.6447 8239156 310.6333 0.0894 0.37806235 16390 ...Continue Reading

[TLELIST] Current TLEs

October 14th 2025 PDT

0 HST 1 20580U 90037B 25286.42132441 .00010733 00000-0 38648-3 0 9994 2 20580 28.4698 322.6928 0001766 283.7513 76.2885 15.26891898750763 0 ISS (ZARYA) 1 25544U 98067A 25286.81616349 .00012055 00000-0 21953-3 0 9997 2 25544 51.6332 79.1379 0000799 266.7872 93.3025 15.49912173533567 0 CXO 1 25867U 99040B 25288.43817974 .00000826 00000-0 00000-0 0 9994 2 25867 51.9505 124.6447 8239156 310.6333 0.0894 0.37806235 16390 ...Continue Reading
  • This mailing list is a public mailing list - anyone may join or leave, at any time.
  • This mailing list is announce-only.

International Space Station (ISS) / Hubble Space Telescope (HST) / Chandra X-Ray Observatory Orbital Data via EMAIL

Privacy Policy:

Private list